Theta_e
314 314 314 314 313 312 311 311 310 310 309 308 307 307 306 303 301 298 290 292 291 285 283 282 283 280 281 280 276 279 279 279 278 273 270 272 271 270 270 273 276 275 273 273 271 269 268 279 277 270 274 277 277 276
314 314 313 313 312 312 311 310 310 309 308 308 307 306 305 303 301 300 289 290 293 286 284 287 286 287 286 285 282 282 280 280 279 274 275 276 274 275 274 272 280 274 276 274 275 274 279 279 276 278 278 276 276 276
312 313 312 312 312 311 310 310 309 309 308 307 307 306 305 302 301 299 291 289 290 284 282 283 282 285 288 286 289 281 282 282 282 282 278 277 274 275 274 275 276 280 281 279 279 280 278 277 278 278 278 276 276 277
311 311 312 311 311 310 310 309 309 308 308 307 306 305 304 302 299 297 290 290 289 284 279 280 286 283 285 287 288 287 285 286 284 283 279 277 275 280 277 278 277 279 279 278 280 281 279 278 276 276 276 277 276 275
310 311 311 311 310 310 309 309 308 308 306 307 306 304 303 300 298 292 289 288 288 284 282 278 281 281 284 284 285 286 285 284 282 279 278 277 280 278 280 278 278 278 276 278 277 278 278 275 275 276 274 273 274 274
309 310 310 310 309 309 309 308 307 306 306 306 305 303 301 298 296 291 284 287 287 287 280 272 278 279 281 283 284 284 284 284 283 280 279 280 282 278 276 275 277 278 279 279 278 279 277 275 275 274 272 272 272 272
309 309 309 309 309 309 308 307 306 306 305 305 303 301 299 297 291 285 283 286 289 286 280 271 272 279 280 280 282 282 283 281 280 279 277 278 279 276 277 271 276 276 276 275 275 277 276 276 273 272 271 269 268 267
308 308 309 309 309 308 307 306 306 305 304 302 301 298 296 295 292 284 285 287 286 282 280 272 268 273 279 278 277 280 279 279 274 276 276 273 272 272 268 276 277 276 275 273 273 274 274 273 272 271 271 269 267 267
307 308 308 308 308 306 306 306 305 303 301 299 297 295 290 286 283 282 288 286 283 282 276 273 271 268 278 279 279 277 278 273 269 270 266 264 266 265 272 276 276 274 274 273 271 269 270 269 268 266 265 265 265 265
307 307 307 307 306 305 305 304 303 300 298 298 292 286 280 283 289 287 282 279 278 275 274 272 270 268 276 276 274 271 270 268 263 264 262 261 267 271 271 270 276 274 273 271 267 264 263 263 264 262 261 261 262 261
306 307 306 306 305 305 304 301 299 299 298 288 283 278 281 288 283 279 273 273 271 269 273 270 269 267 272 269 267 269 265 262 262 264 262 263 267 273 268 264 263 266 267 265 263 263 266 266 265 261 259 258 260 260
305 306 306 305 305 303 300 299 300 295 288 287 283 283 282 281 278 275 269 266 266 271 268 269 268 270 268 271 267 263 264 262 263 259 261 261 272 265 264 261 260 261 262 262 262 265 265 265 264 262 260 258 256 257
305 305 305 305 303 301 299 301 300 293 289 286 284 279 280 273 270 268 268 269 267 270 267 267 266 268 265 269 264 264 263 264 260 261 264 270 266 262 262 260 256 255 259 261 259 259 261 260 259 258 258 255 257 257
305 305 305 304 301 300 300 296 295 295 289 285 281 274 274 268 270 273 276 275 269 271 271 272 267 267 266 265 265 264 261 261 262 262 267 272 268 266 261 258 259 257 257 260 259 258 259 259 257 256 256 256 258 257
304 304 304 302 300 301 296 296 298 287 287 283 283 277 272 271 265 264 265 267 267 274 271 269 267 270 263 262 263 262 260 261 267 269 273 269 263 265 261 259 260 259 259 259 256 258 257 256 257 254 253 254 256 256
304 303 301 300 300 298 298 296 287 285 281 280 275 271 267 270 264 264 266 265 266 273 270 273 266 265 263 265 263 264 266 267 272 271 267 261 262 262 261 261 261 261 260 259 258 257 257 257 257 256 254 253 253 255
303 293 300 300 298 298 297 288 287 282 282 278 273 272 271 271 271 269 270 268 269 270 271 270 267 268 265 263 264 269 269 273 270 265 263 262 262 262 261 260 260 261 260 259 257 257 254 254 256 256 255 252 254 253
296 299 299 298 296 293 285 285 284 283 278 272 272 268 268 267 266 265 265 271 270 270 270 271 268 265 267 268 268 272 268 262 260 261 261 259 259 259 262 262 261 261 260 258 259 255 255 256 256 255 256 254 255 253
298 297 297 297 294 287 284 280 282 275 269 269 269 268 268 263 263 264 265 265 265 266 268 267 266 269 272 272 272 270 265 265 263 260 258 256 259 260 260 260 260 259 260 259 259 259 258 258 259 259 258 257 257 257
297 297 296 297 291 285 279 276 279 275 270 271 270 268 265 262 262 265 264 264 266 267 266 267 271 274 273 272 270 270 268 268 265 260 258 258 258 259 260 261 262 260 260 258 259 260 259 256 257 260 260 259 260 259
295 294 291 285 279 276 274 273 270 271 271 270 269 268 263 264 264 264 263 264 265 267 269 273 272 270 261 261 261 264 268 269 267 267 265 261 261 263 262 261 261 262 261 261 260 259 259 259 259 260 260 258 260 260
286 291 285 284 277 275 271 270 271 271 270 269 270 268 265 263 263 264 263 264 266 272 273 272 268 265 261 262 261 261 264 263 261 263 264 264 262 262 262 262 262 262 262 261 261 260 260 260 261 260 260 258 259 259
291 288 283 283 277 275 269 271 271 271 270 270 270 266 263 262 261 262 262 266 270 275 269 264 259 257 261 256 257 257 257 261 263 263 263 262 265 264 264 262 264 263 261 261 262 262 260 261 261 260 259 259 259 258
286 278 275 274 275 268 271 270 272 272 271 270 267 262 262 261 261 261 263 268 271 262 260 258 258 258 257 255 256 257 257 260 263 261 264 265 264 262 263 263 264 263 263 263 262 260 260 260 260 259 259 259 259 258
281 275 277 270 268 269 269 270 270 272 270 268 266 261 260 259 261 261 264 269 267 262 260 257 258 260 262 259 258 257 255 262 264 263 260 262 262 262 261 260 259 260 263 261 260 259 259 259 259 259 260 260 260 259
273 270 271 269 267 272 272 271 271 271 271 268 262 257 259 261 261 266 268 267 262 258 257 257 257 258 258 258 257 256 257 256 260 260 258 261 264 263 261 260 259 257 260 263 261 260 259 259 259 259 260 261 260 259
272 269 267 267 272 272 272 272 272 271 268 268 263 260 260 262 264 268 259 256 257 254 253 253 254 256 257 255 254 254 255 256 257 259 260 261 259 261 264 262 261 262 262 262 262 261 260 260 260 261 260 260 260 260
269 269 271 269 270 271 272 271 270 269 268 265 267 263 266 268 269 259 255 254 252 252 253 252 253 253 254 254 255 256 256 255 258 260 260 259 258 258 258 259 261 264 263 263 262 262 262 262 261 261 260 259 258 259
264 264 268 265 264 265 266 268 268 262 259 267 268 264 264 258 253 253 252 252 251 252 253 252 253 254 255 256 257 257 258 259 259 258 259 257 257 257 257 261 261 262 262 263 265 264 263 263 262 261 261 259 258 257
263 261 265 263 266 264 259 256 257 254 254 254 254 256 256 253 250 250 251 251 252 252 252 253 253 254 253 255 255 257 257 257 258 260 261 260 260 259 260 261 261 262 263 263 263 264 267 263 261 258 257 256 256 255
257 259 261 261 258 254 253 253 252 252 253 252 251 255 255 252 249 250 251 251 252 253 253 253 253 255 257 257 257 257 258 258 257 257 259 261 260 261 261 261 262 263 264 263 264 261 259 259 258 257 257 256 257 257
258 256 258 259 255 253 253 253 254 254 254 255 253 253 254 254 254 250 251 251 252 253 255 254 256 257 258 259 260 260 259 259 259 260 260 261 261 261 262 262 263 263 263 261 260 259 259 259 258 258 257 257 256 256
253 253 252 252 253 254 253 254 255 255 254 253 252 251 251 252 254 250 253 252 250 250 251 254 256 257 258 258 259 259 260 261 261 263 263 263 262 262 262 263 263 262 261 260 260 259 258 258 258 258 257 257 256 256
Wind_Speed
23 24 26 29 30 29 30 30 27 27 25 23 22 21 19 18 15 3 2 3 2 3 1 2 3 2 2 0 2 4 2 4 5 6 4 3 3 3 2 4 8 7 7 6 6 8 9 23 11 10 8 7 9 14
21 25 27 30 31 31 31 30 29 28 26 25 23 22 20 19 14 6 3 1 3 5 3 2 3 5 4 3 2 3 2 2 2 3 3 2 3 4 4 4 7 5 4 4 7 4 2 7 9 8 8 6 11 12
22 23 26 29 31 32 31 31 30 29 28 25 24 23 21 19 14 5 4 4 4 4 2 2 2 3 5 5 4 2 2 2 2 0 2 1 2 1 4 3 4 1 2 3 2 2 4 8 6 8 8 9 12 12
21 24 27 28 29 30 33 33 33 31 29 26 24 24 22 19 16 9 4 3 3 3 3 2 0 1 4 5 4 2 1 2 1 1 0 2 1 2 3 3 2 1 4 4 4 3 4 8 10 8 8 9 10 12
22 24 26 27 30 32 31 33 33 32 30 27 26 24 23 20 16 9 4 2 1 4 3 2 1 1 2 4 3 2 3 2 1 1 1 1 1 1 2 1 3 2 1 1 3 1 2 2 5 7 9 10 11 10
21 22 27 29 29 30 32 33 34 33 31 28 28 27 25 22 16 4 2 1 1 1 4 1 1 1 2 1 1 2 2 1 1 1 1 1 2 1 2 3 2 2 2 1 5 3 7 6 5 6 6 7 9 10
22 23 26 29 30 32 31 33 34 33 31 30 30 28 24 18 5 3 3 3 6 1 4 2 2 1 0 1 1 1 0 1 2 0 2 2 1 0 1 3 5 5 4 3 2 5 3 1 4 4 7 7 7 7
23 23 26 29 30 31 33 35 35 36 34 33 31 28 22 24 15 4 3 5 1 4 3 2 1 1 2 3 2 1 1 1 2 2 1 2 3 1 5 6 6 6 6 4 3 1 4 8 6 5 5 4 7 8
22 23 25 30 29 32 36 36 38 38 38 36 35 25 7 5 3 2 8 7 3 3 3 3 5 4 2 1 2 2 1 2 0 1 2 3 2 6 10 7 9 8 7 9 6 6 6 6 7 4 4 5 7 6
22 23 25 29 32 36 36 40 41 43 41 34 10 5 4 1 15 10 3 3 3 3 3 3 1 3 3 4 3 2 1 1 1 4 1 2 6 4 4 4 10 10 9 11 7 1 2 3 6 4 3 2 3 4
24 25 26 29 36 38 42 44 46 41 27 5 5 4 1 7 1 2 2 2 0 2 3 1 2 5 2 4 4 1 3 0 2 5 4 3 6 5 6 5 5 7 6 5 5 1 4 6 9 8 6 4 7 7
23 26 27 32 38 45 50 51 45 14 5 10 15 9 4 2 2 4 3 1 3 6 1 5 3 3 1 1 4 2 2 3 4 2 3 5 6 1 4 4 4 4 5 6 2 6 6 9 9 8 7 5 4 6
24 26 31 38 44 49 51 47 31 40 26 5 7 6 4 0 3 9 9 5 3 6 6 4 3 4 2 1 4 4 3 5 1 2 6 8 3 3 7 6 3 1 4 7 5 5 8 8 7 6 8 4 7 7
25 29 36 43 49 50 49 43 41 23 7 5 6 7 8 5 7 8 5 4 2 5 9 5 4 4 2 4 3 6 3 3 1 1 9 5 9 9 8 6 8 7 5 8 8 7 9 9 8 6 6 5 8 7
28 33 40 46 48 46 44 41 29 6 4 5 5 8 7 3 4 2 2 4 0 6 6 4 4 3 1 5 0 5 4 5 8 8 5 3 5 12 9 6 8 9 7 7 5 7 8 8 8 6 3 4 6 6
32 38 23 45 44 43 40 26 7 4 3 3 3 4 2 4 0 1 1 3 2 5 2 3 5 4 1 6 4 9 7 8 7 5 2 3 6 7 8 7 7 8 9 9 7 7 7 9 10 8 6 6 5 7
29 1 44 44 41 39 33 9 4 5 4 3 2 1 1 2 5 4 4 3 3 3 4 4 6 8 3 3 3 6 8 6 3 2 1 4 7 7 8 8 8 10 10 9 6 7 5 5 7 7 9 2 6 5
9 31 42 44 32 16 5 5 4 4 4 2 3 2 2 2 3 3 2 6 5 2 2 5 6 4 6 6 5 6 3 2 2 1 3 2 6 6 6 9 9 11 11 9 10 7 7 8 7 3 8 6 6 4
29 30 45 42 18 9 5 3 3 5 3 3 2 3 3 3 2 2 3 3 2 0 5 2 3 5 6 5 5 2 2 4 5 3 3 2 6 7 7 6 6 6 10 10 11 9 7 7 6 8 7 6 6 5
46 46 40 23 11 5 6 3 1 5 4 3 3 3 2 2 1 3 3 2 2 2 2 4 6 5 5 4 3 3 3 6 6 3 2 1 2 7 8 9 7 7 7 6 5 8 7 3 3 7 8 6 8 7
32 18 18 10 6 8 6 2 4 3 4 3 2 2 3 1 3 2 2 0 3 4 4 5 5 3 1 1 1 1 4 7 5 5 6 7 6 7 7 5 8 7 6 7 7 6 6 6 5 5 6 4 4 5
8 12 5 5 7 5 6 4 5 3 4 2 3 3 3 2 2 2 2 1 5 5 5 4 3 4 3 3 3 3 3 6 4 5 9 14 10 9 10 9 10 9 8 8 7 8 6 6 7 6 6 4 5 5
16 6 5 5 7 6 2 1 3 1 4 4 1 3 1 2 1 1 2 5 5 5 3 2 3 1 4 1 3 2 1 5 4 4 5 3 6 5 8 8 8 10 8 6 6 7 7 8 8 7 7 6 6 5
12 8 6 5 5 5 2 2 2 4 4 3 3 3 1 2 1 1 4 5 5 2 1 2 2 3 3 3 2 3 3 2 4 3 3 7 7 5 6 7 6 4 5 8 7 7 7 7 8 7 8 8 7 6
9 4 4 6 2 6 5 4 3 3 3 3 4 2 3 3 2 2 5 5 1 1 1 2 1 1 3 1 1 2 2 4 6 6 3 4 6 7 5 3 3 4 8 10 9 10 9 8 8 8 9 8 9 7
8 3 3 5 3 4 6 6 6 6 5 4 2 2 1 3 2 7 5 2 1 1 1 1 3 2 2 2 3 2 3 3 3 3 3 5 7 9 11 11 9 4 4 8 11 12 12 10 10 11 9 9 9 8
5 2 2 0 2 5 5 3 2 4 5 7 6 5 4 4 7 6 0 2 2 1 1 2 2 1 1 1 2 3 2 3 2 3 4 4 2 3 7 9 11 6 9 10 10 12 14 13 11 11 9 7 7 6
4 3 6 3 3 1 6 4 5 8 5 3 7 6 11 10 6 1 1 2 2 2 2 1 1 2 3 3 3 4 4 2 5 7 7 6 5 4 3 3 5 15 10 9 10 10 10 11 11 11 10 9 7 4
4 2 3 4 3 3 2 4 5 1 2 4 5 4 5 2 1 2 3 2 2 2 2 2 3 3 3 4 3 3 3 4 5 4 5 3 3 1 1 5 7 7 8 9 12 11 12 11 11 10 10 8 6 6
1 2 4 3 4 2 1 3 2 1 3 2 1 1 3 3 2 3 3 3 3 3 2 2 1 3 3 2 2 1 2 3 3 1 4 4 5 6 6 7 7 7 8 9 10 12 15 12 13 7 8 7 5 5
2 2 4 4 4 1 1 1 1 2 2 2 2 3 2 3 1 2 4 4 3 3 3 3 4 3 3 2 1 1 2 1 2 3 2 2 6 7 7 7 7 7 8 10 10 11 11 9 9 10 9 8 7 6
5 4 2 3 1 3 2 2 1 3 3 3 3 2 2 2 3 4 5 5 4 4 5 4 3 3 3 2 2 2 4 1 3 1 2 4 6 7 8 7 7 8 9 10 10 11 11 11 9 9 9 9 7 6
2 3 2 4 3 3 2 4 4 3 3 2 2 1 2 2 2 2 2 2 1 3 5 5 4 4 3 3 3 2 3 1 3 4 6 8 10 10 7 7 8 9 12 10 10 10 11 13 10 10 9 8 7 6
Wind_Direction
208 203 197 189 185 181 177 173 176 169 171 167 170 162 164 161 155 114 80 356 97 119 65 73 7 15 286 328 349 327 341 16 359 35 14 5 343 313 304 307 332 354 340 8 3 36 17 357 347 46 351 345 358 19
204 198 193 188 184 181 177 174 172 169 168 169 165 163 162 163 159 134 101 348 27 84 122 75 112 40 11 2 332 359 98 69 8 326 23 310 352 352 302 352 350 33 19 1 31 58 12 348 33 13 358 13 24 33
208 194 189 188 185 181 177 173 170 167 166 168 165 166 159 160 156 105 114 152 80 113 100 147 198 11 35 11 323 328 108 12 120 158 358 313 309 313 348 15 291 113 1 52 160 62 40 34 30 21 17 39 29 36
205 198 191 189 184 181 178 173 167 166 166 162 165 162 153 151 137 117 123 166 92 112 120 114 227 27 342 347 15 13 7 192 223 227 347 312 337 57 332 304 298 283 334 9 82 96 179 57 21 14 33 33 52 43
203 202 192 190 185 181 175 170 166 166 162 161 160 152 144 141 117 88 81 85 42 132 135 103 351 7 344 352 349 332 296 296 286 213 217 272 339 328 225 263 247 14 78 18 101 28 78 24 15 19 45 39 36 57
199 195 190 185 180 176 174 170 163 159 159 157 151 142 140 137 128 99 59 32 202 90 105 101 79 10 25 295 310 40 343 340 289 280 240 248 141 265 303 274 177 105 78 21 152 105 109 118 76 51 69 47 49 64
198 194 188 182 180 175 170 164 159 152 149 146 138 136 139 131 75 101 166 137 159 97 93 71 186 142 61 328 145 150 77 54 333 347 232 250 198 340 242 239 174 148 135 132 117 130 96 352 127 90 94 90 83 72
195 188 186 182 180 173 164 158 153 144 140 134 128 125 113 103 115 60 28 80 44 94 90 127 244 168 196 174 166 27 181 206 34 8 218 278 349 175 246 227 149 151 146 121 121 49 100 101 82 84 96 94 84 76
190 185 185 177 173 162 157 151 144 135 129 123 117 107 74 43 85 117 116 80 53 116 156 156 167 198 167 133 97 140 321 224 204 220 145 96 238 226 215 169 171 182 185 151 108 89 102 120 135 115 97 76 106 100
194 181 181 174 162 157 150 142 134 128 124 118 84 70 101 31 119 134 25 50 14 341 41 203 102 130 182 163 169 116 247 240 201 240 42 150 255 251 205 193 158 159 147 139 112 88 125 142 147 131 131 113 105 107
192 178 177 170 160 152 141 134 131 129 114 81 111 86 71 126 144 44 79 125 284 291 168 157 132 142 270 140 172 91 191 152 77 259 121 267 274 224 141 106 49 63 85 84 88 93 141 152 152 142 124 122 132 126
180 169 167 158 155 145 139 140 141 121 123 135 112 103 116 167 83 118 199 7 202 222 171 142 180 120 147 42 104 264 134 45 237 188 72 273 249 108 113 113 92 98 123 107 119 126 106 118 136 129 121 110 99 100
173 167 163 153 150 146 144 148 125 119 113 96 73 99 174 177 128 179 195 233 219 166 178 160 130 128 73 86 61 106 110 221 28 65 231 229 195 163 144 136 128 85 125 130 99 83 101 103 88 106 122 115 117 106
169 165 159 155 150 149 147 130 134 126 86 113 140 148 195 179 233 190 184 157 151 121 139 121 105 129 156 89 147 102 240 64 2 264 236 235 196 168 156 151 138 170 150 133 122 120 125 122 110 103 109 126 130 137
163 156 157 153 151 148 138 139 138 81 95 125 157 197 194 149 49 62 96 104 60 142 119 99 67 111 116 94 119 102 41 252 203 229 230 212 157 152 159 155 149 152 151 136 135 136 126 122 122 110 132 134 123 117
153 152 153 150 145 139 135 122 73 84 68 121 108 102 350 83 161 119 208 107 243 146 87 73 123 91 203 133 109 207 143 224 242 214 224 96 139 149 149 155 155 146 142 142 141 130 137 144 145 145 115 105 120 129
147 3 147 143 137 136 129 93 89 51 108 116 99 79 211 72 135 159 146 150 160 113 154 126 117 194 102 69 248 197 204 220 191 205 112 134 162 160 141 134 139 142 139 139 124 129 124 121 125 122 124 122 103 104
109 133 136 135 126 104 43 45 93 116 116 107 119 124 58 32 96 91 90 141 129 180 117 188 124 136 187 182 241 235 197 122 13 109 130 103 111 126 153 150 148 149 143 137 136 131 134 140 138 126 121 130 118 122
139 137 143 142 126 102 101 61 8 105 79 83 83 60 52 104 39 19 72 60 74 120 101 52 105 199 221 217 211 217 165 165 170 190 122 81 130 135 123 117 126 128 144 150 152 155 157 157 152 143 147 156 152 164
139 139 145 124 76 83 91 63 309 97 101 114 83 75 58 69 123 54 57 50 89 86 81 192 216 220 196 229 197 174 143 131 128 98 95 202 159 131 145 152 153 137 127 124 121 140 137 111 134 147 158 166 154 166
120 118 94 68 62 60 78 86 63 63 106 85 121 151 99 99 91 137 150 261 60 209 235 216 224 229 69 64 305 91 130 156 182 171 164 159 172 151 144 133 136 149 151 163 162 153 160 169 156 152 152 145 134 133
106 110 93 68 78 74 78 10 87 86 82 113 149 106 106 124 130 121 141 95 228 237 208 197 210 157 143 213 214 207 159 113 88 86 82 121 152 163 172 165 159 168 170 175 169 168 165 147 147 143 139 125 124 128
113 80 64 69 87 63 82 211 127 81 107 156 118 93 62 103 82 352 218 228 247 227 201 166 142 90 121 119 71 57 196 140 135 141 145 135 135 137 147 162 170 163 160 167 150 152 143 145 146 139 129 134 139 136
49 56 65 70 77 109 140 71 74 99 105 168 143 108 122 140 173 154 246 244 234 61 123 186 129 89 44 44 202 209 209 146 120 107 151 143 143 150 156 159 162 151 143 138 139 132 142 147 145 141 147 151 157 163
80 11 84 72 54 112 106 129 110 116 121 182 113 137 205 170 144 186 237 264 186 215 161 148 161 215 179 144 103 166 211 174 173 159 206 149 123 116 109 95 105 130 145 140 148 151 151 147 154 156 160 160 162 164
81 355 95 152 139 145 159 119 168 164 137 134 106 164 134 97 88 237 229 248 6 48 36 185 186 195 278 166 153 158 223 211 129 129 210 160 172 162 161 165 162 210 189 163 154 157 154 158 160 160 159 158 157 151
112 134 45 247 74 96 88 76 61 117 148 163 169 152 118 158 233 247 40 8 45 38 318 297 311 352 27 137 70 10 30 76 110 167 132 127 110 156 170 174 187 168 161 159 158 161 159 160 160 161 152 143 153 155
101 172 130 156 96 17 119 119 156 190 175 158 122 171 175 191 226 243 43 8 13 315 269 284 36 21 11 50 93 102 67 48 88 91 83 55 29 36 63 75 112 146 148 150 149 150 154 155 156 152 149 149 142 134
61 335 108 76 74 77 119 164 189 89 3 155 156 183 219 55 16 25 11 359 310 301 351 29 30 40 27 37 40 33 141 159 135 138 154 140 150 237 46 110 127 133 137 136 143 140 146 144 143 141 137 131 124 123
351 5 82 67 101 120 36 348 56 2 41 100 145 37 41 44 21 337 352 355 10 5 348 355 48 61 89 60 50 350 344 353 353 100 155 177 194 142 140 136 136 136 138 138 137 143 135 118 111 104 109 116 127 141
337 2 74 52 85 15 352 342 34 31 29 47 11 99 162 151 57 356 15 341 332 332 12 22 18 17 62 77 96 147 273 247 298 330 357 77 120 137 138 138 140 139 138 140 139 129 131 127 127 129 133 137 144 144
20 43 100 99 9 314 350 60 57 63 8 45 359 355 1 67 66 350 360 340 347 20 22 9 18 19 3 4 31 34 346 220 169 198 125 122 124 130 131 134 135 133 131 122 127 131 132 131 131 135 138 136 140 142
68 54 64 98 45 22 330 72 33 31 31 43 6 11 44 75 79 335 330 28 20 310 327 338 343 345 345 356 27 19 360 75 140 133 129 126 129 129 126 127 127 124 124 125 128 131 127 128 129 131 130 132 136 147